Theta_e
349 348 348 346 343 343 344 345 342 345 350 354 357 356 354 352 349 340 340 338 337 336 335 332 332 332 329 329 326 325 324 324 324 323 323 323 325 326 327 327 327 326 326
355 348 348 348 346 344 343 342 343 342 346 351 355 357 355 353 350 345 340 339 339 338 335 332 331 330 329 329 327 326 324 324 324 323 322 323 325 325 326 326 326 326 326
352 349 347 346 347 347 346 345 345 346 341 347 353 357 356 353 345 345 342 340 337 337 335 333 331 330 328 328 327 326 324 324 323 323 322 323 324 325 325 326 326 326 326
351 354 348 348 348 349 347 344 345 344 342 341 346 352 353 353 347 343 342 340 339 337 335 334 332 332 328 327 326 325 324 324 323 322 321 322 324 324 325 325 325 326 326
353 353 348 349 353 349 348 346 346 346 343 343 344 352 353 351 349 341 343 342 341 337 338 335 333 332 328 326 325 324 324 323 322 321 321 322 323 323 324 324 324 325 326
355 354 349 346 351 350 348 347 348 348 347 343 342 346 348 349 348 346 343 341 341 338 338 339 335 332 330 325 324 324 324 323 322 321 320 320 321 321 322 323 323 323 324
356 357 351 349 353 348 351 351 349 348 346 348 346 346 346 349 349 347 344 340 341 339 337 338 338 336 332 326 324 323 323 323 322 320 319 319 319 320 321 321 321 322 322
355 354 355 353 348 345 350 352 350 344 344 350 344 347 337 341 344 345 342 341 342 339 334 338 339 338 336 331 330 323 322 322 321 320 319 318 317 318 319 320 320 320 321
354 356 354 353 353 351 345 348 347 348 340 348 351 342 335 332 342 347 342 342 343 339 336 337 338 338 337 333 328 325 321 320 319 319 318 317 316 316 316 318 319 319 319
350 351 354 353 354 349 350 351 350 348 346 340 346 348 351 345 337 336 341 341 342 339 340 336 336 337 337 332 328 324 319 318 317 317 317 316 316 315 314 314 317 317 318
349 348 350 352 353 351 350 352 350 345 340 341 344 343 350 346 346 346 337 336 339 340 340 338 336 335 336 332 330 322 318 316 315 314 314 314 314 313 313 312 314 316 317
339 345 347 350 352 352 350 349 351 350 344 347 346 347 343 344 338 337 340 343 338 336 337 337 337 335 334 330 328 320 316 314 313 313 312 312 312 312 311 310 312 314 315
331 339 345 348 346 351 351 350 350 349 351 347 345 339 346 342 342 339 340 343 335 334 334 336 336 335 332 330 327 321 316 313 312 311 311 310 310 310 309 309 310 311 312
330 339 342 345 346 348 349 350 346 346 351 350 350 350 350 347 342 342 340 343 336 331 331 331 334 333 332 329 329 321 316 313 312 310 310 309 309 308 307 307 308 308 309
329 333 338 341 344 345 347 349 345 345 347 350 350 351 349 348 345 343 343 341 341 330 326 330 327 334 330 327 326 325 320 312 311 310 309 308 308 306 305 306 306 306 306
331 331 334 338 341 342 344 346 345 346 345 345 346 349 347 348 346 345 345 341 340 342 333 330 328 331 330 326 325 327 321 313 311 310 309 308 307 305 304 304 304 305 305
328 327 328 330 333 338 341 344 344 343 341 345 346 345 346 348 346 343 341 341 339 340 337 327 328 330 329 326 325 326 317 318 313 310 309 308 306 303 303 303 303 303 303
326 325 324 325 326 330 337 338 337 341 340 340 342 343 342 345 344 347 338 337 340 341 333 325 325 325 325 328 326 324 320 319 317 310 309 308 305 304 304 304 302 302 301
325 324 323 322 322 325 329 334 336 336 341 340 341 341 342 343 344 342 340 337 338 333 332 325 322 325 325 324 324 324 322 321 318 311 309 308 305 302 304 303 303 301 300
325 325 324 323 322 322 324 328 332 334 336 339 340 342 341 341 342 343 339 338 336 330 332 325 321 322 322 325 324 320 318 318 316 315 313 312 310 303 303 304 302 301 299
325 325 323 323 323 322 321 326 330 332 336 337 341 339 343 339 333 339 337 335 329 326 328 324 321 319 318 319 319 320 318 317 318 318 313 312 314 310 304 303 301 300 299
325 325 323 322 322 321 311 310 321 333 334 337 339 340 342 334 331 319 320 322 325 328 325 324 324 319 322 321 321 319 317 314 312 318 316 311 314 308 303 301 299 299 299
326 324 324 323 322 323 309 308 311 329 333 337 339 339 339 340 330 330 316 317 318 316 321 328 326 324 323 325 325 321 319 316 314 315 316 308 311 307 305 300 299 299 298
325 323 322 323 322 321 308 307 308 329 333 335 338 339 340 338 330 328 323 323 322 320 323 326 332 330 330 330 327 322 320 320 317 315 315 306 310 308 306 302 299 298 298
322 322 321 321 321 321 308 306 311 327 329 333 334 339 339 334 315 308 319 322 319 314 307 309 311 308 307 308 316 318 316 312 309 310 313 308 308 306 304 304 303 299 298
320 319 319 321 316 321 309 304 309 325 330 332 334 335 314 327 304 304 318 316 311 311 317 318 316 310 314 312 308 324 316 310 308 307 311 308 306 306 301 304 304 305 306
Wind_Speed
6 7 6 6 6 6 7 7 6 7 9 8 8 7 8 7 8 3 6 13 12 10 9 7 7 7 7 11 10 11 12 12 15 17 19 19 19 19 20 20 19 19 17
3 7 7 7 6 6 6 7 7 7 8 8 8 6 6 6 8 8 7 10 11 11 9 7 6 6 6 8 8 10 11 12 15 17 19 20 20 20 21 21 20 18 19
9 5 7 7 7 7 7 6 6 7 7 8 8 8 7 8 8 9 8 8 10 11 10 8 7 6 5 7 7 9 9 13 15 18 19 19 20 21 21 21 19 19 19
5 8 8 7 7 7 7 7 8 8 8 8 8 7 9 8 11 9 9 6 8 9 10 10 8 7 4 5 7 8 9 13 15 17 18 20 20 21 22 21 19 21 21
11 9 6 6 6 8 8 7 8 8 8 8 8 5 5 7 10 10 10 10 8 7 8 13 10 7 5 3 5 7 9 12 15 16 18 19 21 22 21 22 21 22 22
9 9 8 5 7 9 9 8 8 8 8 8 8 7 7 6 9 9 11 9 9 9 5 11 10 9 8 4 4 7 8 12 14 16 18 19 21 22 21 22 21 21 22
9 10 8 7 7 10 10 8 9 10 8 7 4 5 6 8 10 10 9 9 10 10 8 8 6 7 8 8 5 6 8 11 13 15 17 19 21 22 22 21 21 22 22
8 8 9 8 8 5 5 10 10 9 9 6 8 5 6 6 9 9 9 10 10 9 9 10 9 6 6 7 9 7 8 10 12 14 16 19 20 21 22 22 22 22 22
9 10 10 9 8 9 9 6 6 10 7 8 13 7 5 8 9 9 12 10 10 9 10 9 9 8 7 3 11 10 9 10 11 14 16 18 20 22 22 23 22 23 23
8 10 11 11 10 8 9 10 10 10 7 9 8 11 9 11 4 5 7 10 9 10 11 7 9 9 8 6 12 14 12 11 12 13 15 17 20 22 23 23 23 22 23
8 10 10 11 11 9 9 10 11 13 11 11 9 9 9 9 8 6 6 7 9 10 9 10 8 8 9 6 7 12 12 12 12 12 14 16 19 21 23 23 23 23 23
4 6 8 10 10 11 11 10 12 14 13 11 9 10 6 9 11 10 8 7 8 9 8 9 9 8 8 7 5 19 14 13 12 12 13 15 18 20 23 23 23 23 23
6 5 6 8 9 11 12 11 11 12 12 14 13 10 7 11 11 11 7 6 6 6 6 8 8 8 8 7 12 15 15 14 13 11 12 13 17 19 21 22 23 23 23
6 7 8 9 10 12 12 12 11 11 12 11 16 14 12 12 8 10 8 7 7 6 7 6 9 9 8 8 15 16 11 14 13 11 11 12 15 17 20 21 22 22 23
6 8 10 11 11 12 12 13 12 13 13 11 14 15 13 11 10 10 11 10 9 7 9 9 6 10 9 9 15 12 12 14 14 11 11 11 14 16 19 21 21 21 22
6 7 10 12 12 13 13 13 13 13 14 11 12 14 14 11 10 8 6 7 8 7 5 8 9 11 10 9 15 10 13 14 13 11 11 10 13 15 18 20 21 21 22
6 8 9 11 12 13 13 13 14 16 16 15 16 15 15 15 10 10 9 5 7 8 7 7 6 11 12 11 13 10 13 10 9 10 10 10 13 14 17 19 21 21 22
7 8 9 11 13 14 14 14 14 16 17 17 17 17 14 12 13 11 11 11 10 5 6 11 7 10 13 11 13 12 10 8 9 10 10 10 12 11 13 16 19 21 22
9 10 9 10 12 15 16 16 16 16 18 18 18 17 17 14 15 13 12 11 9 6 8 9 7 10 11 10 12 10 9 7 5 16 11 10 12 10 9 15 18 20 21
11 11 11 12 13 14 16 18 18 18 18 18 18 18 18 16 17 16 12 11 12 9 10 10 9 11 11 12 11 11 10 8 8 9 9 7 7 10 12 12 19 21 22
13 13 13 13 13 14 12 17 18 19 18 18 18 19 18 18 19 17 11 14 12 10 9 9 9 11 12 13 13 10 9 8 8 5 10 5 6 3 7 13 16 20 22
15 15 15 15 14 12 12 12 15 17 18 18 17 18 17 16 13 13 16 18 19 16 14 13 11 14 13 13 12 11 9 10 9 6 8 4 3 5 8 9 12 16 18
16 17 16 16 16 17 14 15 16 17 18 17 18 16 14 12 12 13 13 16 16 14 13 14 14 14 13 14 13 13 11 10 6 9 8 7 5 5 7 8 8 11 13
16 16 17 17 16 15 13 15 16 18 18 20 18 18 16 16 12 13 14 15 14 13 12 11 11 12 12 13 13 11 12 9 9 8 7 6 5 5 6 7 4 6 8
16 16 16 17 17 17 13 14 13 18 18 20 17 19 17 14 16 17 15 18 14 9 8 10 12 12 14 13 12 12 12 11 9 9 7 6 6 6 5 4 7 8 3
16 15 18 18 19 19 15 13 14 15 16 14 12 14 13 16 19 21 18 18 17 13 14 14 13 13 14 11 9 10 11 10 10 8 9 7 8 7 6 4 4 4 3
Wind_Direction
206 202 203 217 202 194 190 199 225 206 211 214 219 206 189 172 154 161 139 159 153 149 137 129 125 109 85 75 59 52 40 26 23 17 9 360 6 357 356 351 346 344 345
225 219 204 216 213 217 206 211 206 209 226 222 212 203 207 186 148 184 163 160 166 161 151 145 131 103 76 77 66 60 40 30 24 16 9 360 5 5 359 354 347 347 352
206 264 226 224 216 214 222 213 209 217 222 227 237 196 210 202 158 183 189 157 162 176 169 164 152 126 100 75 66 66 42 31 24 15 9 3 6 8 1 353 348 358 357
238 200 234 229 232 223 215 213 212 213 217 220 224 209 202 177 188 159 203 187 181 172 180 184 173 158 129 88 64 62 47 39 26 15 10 6 8 7 3 353 358 3 2
201 220 258 253 235 243 232 222 216 229 222 233 228 227 207 182 179 185 185 202 189 197 188 169 183 177 156 110 75 60 49 41 29 18 14 8 10 10 2 355 1 4 4
206 214 214 226 282 254 236 226 233 220 243 217 221 180 201 204 193 185 194 198 191 199 219 168 178 181 168 149 92 68 52 44 32 23 17 11 13 9 4 0 4 6 2
205 202 218 229 223 242 254 222 229 223 226 225 235 214 191 205 201 202 195 203 192 197 209 204 227 172 155 156 130 89 64 50 35 29 24 15 16 9 7 3 7 7 4
222 223 222 210 215 244 253 238 226 243 214 215 222 211 206 202 213 203 204 209 200 198 208 210 218 195 188 172 113 104 79 57 41 33 26 23 17 13 6 6 8 10 6
236 232 234 238 215 214 217 205 230 218 228 226 224 231 223 234 179 193 208 213 199 205 211 206 210 205 202 149 161 131 100 74 51 38 32 27 21 14 8 7 8 9 9
250 241 241 241 232 227 220 211 205 201 214 224 211 228 264 309 173 196 204 208 210 208 214 205 196 207 191 208 67 90 108 87 67 49 38 28 24 17 10 10 7 8 10
263 257 248 244 239 232 228 235 211 217 215 231 228 218 221 239 238 247 206 197 197 212 204 211 213 197 191 190 168 117 118 100 81 61 47 33 28 19 12 12 8 8 12
261 250 261 252 247 244 238 232 232 223 227 228 243 239 201 232 235 236 238 212 212 192 202 200 202 199 180 184 115 127 126 110 94 75 55 41 33 23 13 12 11 9 14
276 276 270 264 255 242 248 242 231 240 223 228 217 224 234 236 257 244 206 220 211 159 193 204 191 195 182 179 137 137 132 119 105 87 66 47 37 25 16 13 14 10 13
292 308 286 275 264 259 253 243 241 241 240 222 228 220 221 230 240 250 251 204 224 178 178 190 193 187 182 183 142 147 136 127 116 100 78 55 41 26 19 13 17 12 13
286 285 290 282 270 264 255 250 244 243 242 233 233 226 226 227 228 233 222 232 204 205 202 190 174 187 174 159 147 176 144 137 124 111 90 64 47 30 24 15 18 16 16
272 282 285 286 279 268 259 250 246 240 246 236 238 232 224 227 226 223 241 223 226 234 256 147 201 168 174 173 162 165 131 150 131 121 101 73 54 36 28 19 21 21 20
263 272 278 282 279 275 267 259 251 249 240 238 242 244 235 223 224 218 211 190 210 222 209 153 179 159 170 182 158 150 154 158 140 130 109 81 63 45 33 22 25 26 23
255 265 275 278 279 275 271 264 254 257 250 243 240 238 230 231 224 219 201 205 207 185 163 164 151 166 179 183 167 160 176 168 153 145 123 96 73 52 40 28 25 31 27
250 261 271 279 280 277 271 266 263 250 250 250 249 246 241 220 216 213 212 196 196 179 166 152 156 179 172 178 169 174 178 159 176 138 144 126 98 72 52 39 25 33 30
254 259 264 274 280 276 271 266 262 261 251 252 244 249 245 231 221 214 197 189 185 169 166 146 161 173 169 178 173 168 180 178 180 175 123 115 147 119 78 50 35 31 34
253 255 261 266 274 275 267 263 261 257 258 250 247 243 247 239 224 217 195 179 166 163 160 155 181 166 176 178 184 172 180 177 179 185 136 170 188 87 62 57 35 33 35
251 249 255 263 269 270 273 267 265 265 268 257 248 246 245 229 223 184 202 178 173 171 169 179 186 187 173 183 179 173 174 175 168 183 132 171 143 88 69 52 32 34 34
252 248 250 257 263 267 257 256 256 263 263 253 247 246 244 233 210 199 196 191 186 165 173 178 188 180 167 183 168 175 170 179 177 139 201 140 154 112 92 93 46 39 35
245 248 253 255 262 264 247 249 249 259 262 256 245 243 230 214 197 190 185 180 176 164 174 188 177 169 164 172 161 173 156 154 115 159 152 151 159 127 117 112 110 61 36
246 249 255 261 263 265 248 242 246 259 257 252 248 240 225 200 181 175 172 176 160 137 75 90 113 115 124 137 157 151 158 168 157 158 180 148 153 145 122 112 134 139 116
251 256 260 260 262 264 254 243 240 256 255 249 237 225 199 196 169 177 178 170 150 149 141 122 112 108 130 128 138 168 168 175 157 153 170 176 161 162 140 114 91 94 99